Vorticity
29 18 2 1 12 13 4 6 14 5 9 5 1 4 8 6 4 2 3 1 7 9 8 9 6 8 8 8 9 8 8 8 11 9 6 8 6 9 9 10 10 5 3 3
1 -5 29 19 19 -24 -12 43 14 12 5 4 4 7 11 5 4 -3 5 -2 1 16 9 10 8 6 11 9 9 9 9 11 8 9 9 6 6 6 7 7 5 4 4 7
5 -3 -6 -3 62 6 29 -6 9 10 2 7 6 5 8 7 4 2 4 0 -5 10 6 7 8 8 9 10 9 10 11 10 10 8 6 6 6 7 6 6 8 9 8 6
-17 12 19 1 37 -6 -0 27 15 10 8 6 6 4 8 5 5 3 -1 -1 4 6 5 7 7 7 7 8 8 9 9 8 6 5 5 5 6 7 7 7 6 4 2 1
5 31 -4 -15 -10 35 -2 44 16 6 11 -1 5 -8 6 7 5 5 -4 11 2 9 9 7 7 8 6 4 6 6 7 7 6 5 5 6 5 6 4 4 2 1 1 2
6 10 6 50 24 10 32 5 5 11 14 9 5 2 32 6 8 1 3 -3 3 0 22 3 4 6 6 5 5 5 5 6 6 6 6 5 4 3 3 3 3 3 3 3
-9 22 44 25 18 6 6 4 -3 14 12 11 8 4 -12 30 6 5 2 2 1 14 34 15 1 5 5 5 4 4 3 4 4 4 4 5 4 4 4 3 2 3 3 4
12 15 29 15 2 -17 -6 5 20 5 6 13 7 9 8 1 22 8 3 3 4 0 -1 37 6 1 5 4 3 3 3 3 3 3 3 3 3 3 3 3 3 3 4 4
12 21 27 9 23 -4 26 9 9 10 0 1 13 7 5 -10 20 4 6 5 1 3 -13 15 26 16 2 5 5 4 3 3 2 3 4 5 4 4 4 3 4 4 4 4
9 5 6 22 7 -4 -8 -3 20 19 9 -2 12 10 9 5 4 11 3 7 -1 -4 9 -2 38 2 6 3 4 7 6 7 5 5 5 6 6 5 6 6 6 7 8 8
9 16 8 7 28 26 12 6 6 10 12 6 -2 12 6 4 12 10 9 9 8 6 0 4 23 28 6 12 -2 10 8 8 10 7 5 6 6 6 7 6 6 7 9 10
6 6 21 6 0 6 25 19 8 11 12 22 8 4 1 1 8 5 7 13 10 6 5 8 9 6 17 14 10 23 -20 10 9 7 8 6 5 5 5 6 6 5 3 6
-2 7 7 10 6 4 5 8 17 12 8 10 9 15 6 11 8 8 8 6 6 5 10 8 6 6 5 5 4 19 20 11 -2 7 4 5 7 8 6 5 5 6 4 3
14 12 6 7 14 16 1 13 6 1 0 15 8 10 5 13 6 7 3 6 13 10 8 7 8 6 5 3 13 4 -2 23 21 -3 5 11 6 5 7 7 7 4 5 5
2 2 12 6 7 10 9 13 10 2 8 -6 17 8 2 6 9 13 9 -0 1 -2 2 4 7 7 5 5 2 5 5 1 1 16 21 -7 11 16 8 6 4 5 5 4
1 3 4 4 5 9 9 5 12 14 14 7 5 5 4 10 9 8 4 15 9 3 2 1 2 2 6 9 8 12 15 5 1 1 4 8 19 -5 4 21 8 8 5 2
6 3 6 3 3 8 2 10 13 17 6 9 9 9 8 10 10 7 6 7 6 11 6 1 -1 1 1 2 3 0 5 11 12 6 11 5 1 1 10 10 -10 14 14 7
22 20 14 2 1 4 8 7 11 18 10 11 15 11 5 10 8 9 7 8 7 8 3 5 6 4 4 6 7 8 8 6 3 12 14 4 3 4 1 1 5 10 11 1
7 12 15 23 30 15 12 2 3 0 2 9 13 18 10 5 6 15 10 9 11 5 6 7 8 6 5 2 0 -1 -0 2 3 4 2 5 7 5 9 11 4 4 7 7
8 6 6 10 9 16 23 27 25 16 6 -0 4 9 5 9 14 11 11 9 9 11 12 13 12 10 8 8 8 9 10 9 8 7 6 5 1 1 2 1 9 11 5 3
10 6 2 -0 2 6 9 12 12 21 32 32 17 1 0 -0 4 8 6 8 12 15 14 11 7 8 12 14 14 12 10 8 10 10 10 9 11 10 7 8 5 3 5 7
11 10 16 6 4 7 9 6 6 7 10 17 25 36 28 11 7 3 11 11 6 5 9 13 12 9 7 10 15 19 17 13 14 13 16 16 14 14 13 8 11 19 12 8
18 24 22 20 21 10 5 6 11 5 7 8 9 10 26 39 19 11 5 7 19 9 1 5 9 9 9 4 3 7 9 10 11 11 11 11 12 16 22 24 22 13 2 6
19 14 14 17 23 24 14 7 4 9 6 10 8 9 8 12 31 36 19 6 2 2 7 8 8 6 11 16 15 11 9 9 11 10 11 11 12 12 11 11 11 15 18 18
17 16 15 15 18 16 17 18 9 5 5 9 8 9 8 8 8 9 16 25 30 30 29 24 16 10 4 1 3 6 8 4 3 4 5 5 6 5 4 4 7 10 13 12
5 7 13 12 15 16 26 24 20 16 8 7 9 10 7 10 10 8 7 8 9 12 12 14 18 22 28 35 38 31 24 19 14 9 12 12 9 8 12 9 8 8 7 10
Height
5561 5574 5590 5604 5616 5627 5643 5653 5661 5673 5689 5700 5707 5715 5722 5729 5737 5743 5747 5752 5756 5758 5762 5767 5771 5774 5777 5781 5785 5789 5793 5796 5799 5803 5807 5810 5813 5816 5819 5822 5825 5828 5830 5831
5570 5583 5598 5610 5623 5632 5641 5653 5663 5676 5688 5697 5705 5709 5719 5725 5734 5740 5745 5749 5753 5755 5761 5765 5769 5772 5776 5780 5783 5787 5790 5793 5797 5800 5804 5808 5811 5815 5819 5820 5823 5826 5829 5830
5578 5592 5607 5619 5626 5634 5643 5653 5662 5679 5687 5696 5702 5708 5716 5724 5730 5735 5741 5746 5750 5753 5757 5762 5766 5770 5774 5778 5782 5786 5788 5791 5794 5798 5802 5806 5810 5813 5816 5818 5821 5824 5826 5829
5595 5601 5608 5619 5626 5637 5645 5657 5666 5678 5685 5690 5699 5709 5713 5720 5727 5731 5739 5745 5749 5751 5755 5760 5764 5768 5772 5775 5778 5782 5786 5789 5792 5796 5800 5804 5807 5810 5813 5816 5819 5822 5825 5827
5609 5611 5618 5625 5629 5638 5649 5655 5667 5681 5690 5692 5697 5706 5712 5716 5722 5728 5736 5741 5745 5749 5751 5757 5761 5765 5768 5771 5775 5779 5783 5787 5791 5794 5798 5801 5805 5809 5811 5815 5817 5820 5822 5824
5619 5625 5629 5629 5633 5637 5647 5656 5667 5678 5685 5688 5696 5704 5708 5713 5721 5726 5731 5737 5742 5747 5750 5753 5757 5761 5765 5769 5773 5776 5780 5784 5788 5791 5795 5799 5802 5805 5808 5812 5814 5816 5818 5819
5625 5626 5626 5631 5635 5646 5650 5656 5663 5671 5678 5686 5693 5699 5702 5709 5718 5724 5731 5735 5741 5744 5747 5750 5752 5757 5761 5767 5770 5774 5779 5783 5786 5789 5792 5795 5798 5801 5804 5806 5809 5811 5812 5814
5629 5632 5634 5639 5643 5651 5656 5662 5668 5671 5680 5690 5693 5695 5702 5704 5714 5719 5725 5730 5739 5740 5744 5746 5748 5752 5755 5759 5763 5768 5774 5778 5781 5785 5788 5791 5793 5796 5798 5801 5802 5805 5807 5808
5630 5633 5639 5643 5648 5653 5656 5663 5671 5677 5681 5683 5688 5693 5696 5700 5708 5714 5719 5723 5731 5737 5738 5742 5744 5748 5751 5756 5759 5764 5768 5771 5775 5779 5782 5785 5787 5790 5792 5795 5797 5798 5800 5802
5637 5637 5639 5644 5651 5655 5660 5663 5668 5673 5678 5682 5685 5690 5696 5702 5711 5715 5717 5721 5728 5731 5733 5737 5740 5742 5746 5750 5754 5759 5761 5765 5769 5772 5775 5778 5781 5784 5786 5788 5790 5792 5794 5795
5640 5644 5644 5645 5649 5653 5658 5663 5669 5672 5676 5681 5684 5688 5696 5702 5706 5711 5714 5717 5724 5729 5732 5732 5736 5739 5741 5744 5748 5752 5755 5758 5761 5764 5767 5770 5773 5775 5778 5780 5782 5785 5786 5787
5642 5642 5645 5647 5644 5648 5653 5659 5663 5669 5676 5679 5682 5688 5690 5696 5700 5704 5709 5712 5716 5721 5726 5729 5731 5733 5736 5738 5741 5744 5747 5750 5754 5756 5759 5761 5764 5766 5768 5770 5772 5774 5776 5777
5638 5640 5642 5643 5647 5645 5647 5652 5657 5662 5665 5671 5677 5684 5685 5691 5695 5698 5702 5705 5709 5712 5716 5720 5724 5726 5728 5730 5733 5735 5739 5741 5743 5746 5749 5751 5754 5757 5759 5761 5763 5764 5765 5767
5636 5636 5637 5640 5643 5645 5646 5647 5648 5652 5657 5664 5670 5675 5674 5680 5686 5690 5694 5697 5699 5703 5706 5710 5714 5717 5720 5722 5725 5727 5729 5732 5734 5736 5738 5741 5743 5745 5748 5750 5752 5753 5755 5756
5632 5632 5633 5633 5634 5636 5639 5642 5643 5645 5650 5653 5664 5660 5664 5670 5675 5679 5683 5687 5690 5694 5696 5699 5702 5706 5709 5711 5714 5717 5719 5721 5723 5726 5729 5731 5732 5734 5735 5737 5739 5741 5742 5743
5625 5626 5627 5627 5628 5629 5630 5632 5634 5638 5641 5646 5648 5651 5654 5659 5664 5668 5672 5676 5679 5681 5683 5687 5691 5694 5697 5700 5703 5706 5708 5710 5712 5714 5716 5719 5721 5723 5724 5726 5727 5729 5730 5731
5620 5620 5620 5620 5621 5621 5620 5626 5626 5630 5633 5638 5634 5647 5645 5649 5652 5655 5658 5662 5665 5668 5671 5674 5677 5681 5685 5687 5690 5693 5695 5697 5699 5701 5703 5705 5706 5709 5711 5713 5714 5716 5717 5717
5613 5612 5612 5612 5613 5607 5617 5618 5619 5620 5625 5626 5630 5632 5632 5634 5637 5640 5645 5648 5651 5655 5658 5661 5665 5668 5671 5674 5677 5680 5682 5685 5686 5688 5690 5691 5692 5693 5695 5697 5699 5700 5702 5704
5605 5604 5603 5601 5601 5603 5604 5610 5611 5610 5615 5614 5618 5617 5622 5624 5626 5627 5630 5634 5638 5641 5644 5647 5650 5652 5655 5658 5661 5664 5667 5669 5671 5673 5675 5676 5677 5678 5679 5680 5682 5683 5684 5686
5597 5595 5594 5594 5592 5593 5595 5596 5596 5596 5595 5603 5606 5607 5612 5610 5610 5618 5619 5622 5625 5627 5629 5632 5635 5637 5640 5642 5644 5646 5649 5651 5654 5655 5657 5658 5659 5661 5662 5663 5664 5666 5666 5667
5586 5585 5584 5584 5582 5586 5588 5585 5584 5585 5591 5590 5592 5594 5596 5598 5602 5606 5609 5609 5611 5613 5616 5619 5622 5624 5626 5628 5628 5630 5632 5633 5635 5637 5639 5640 5642 5643 5644 5645 5646 5647 5648 5649
5575 5573 5575 5573 5572 5577 5580 5577 5577 5578 5576 5575 5576 5578 5582 5583 5585 5589 5593 5596 5598 5600 5602 5604 5606 5608 5610 5611 5612 5614 5616 5617 5618 5620 5622 5623 5624 5625 5625 5625 5625 5627 5629 5630
5563 5564 5562 5562 5562 5563 5565 5566 5566 5566 5567 5567 5567 5566 5567 5569 5571 5574 5578 5581 5584 5587 5589 5591 5592 5594 5595 5597 5598 5599 5600 5601 5602 5604 5605 5605 5606 5607 5607 5607 5608 5608 5609 5609
5552 5550 5546 5548 5553 5550 5548 5552 5554 5556 5557 5558 5558 5557 5557 5557 5559 5561 5563 5566 5568 5571 5573 5575 5577 5578 5580 5581 5582 5583 5583 5584 5585 5586 5587 5587 5588 5588 5588 5589 5589 5588 5589 5589
5540 5537 5536 5537 5540 5536 5536 5537 5537 5540 5544 5546 5546 5547 5547 5548 5548 5549 5551 5552 5553 5555 5556 5558 5559 5561 5561 5562 5563 5565 5566 5567 5567 5568 5568 5569 5569 5569 5569 5569 5569 5568 5568 5569
5528 5527 5527 5528 5527 5525 5526 5525 5525 5527 5529 5531 5533 5534 5535 5536 5536 5537 5538 5539 5541 5542 5542 5542 5542 5543 5543 5543 5544 5544 5545 5546 5547 5547 5548 5549 5550 5550 5550 5549 5548 5548 5547 5547